Location: ???????
(55.4362°N, 38.1183°E)
Time: 18:04:32
(UTC+00:00)

OPS 6432 - Pass Details

Date: 17 June 2021
Orbit: 369 x 1711 km, 63.3° (Epoch: 13 June)

Event Time Altitude Azimuth Distance (km) Brightness Sun altitude
Rises 21:37:05 0° 306° (NW) 2,234 8.5 -11.1°
Reaches altitude 10° 21:39:02 10° 301° (WNW) 1,385 7.3 -11.1°
Maximum altitude 21:41:54 50° 224° (SW) 514 4.4 -11.1°
Enters shadow 21:44:38 13° 150° (SSE) 1,359 6.3 -11.1°
